Overall — Oak Grove - Mini
Saturday 20 April 2024 · 61 finishers across every class · 3 laps for the winner
| Pos | No. | Rider | Class | Laps | Time | Behind | Int | Pace |
|---|---|---|---|---|---|---|---|---|
| 1 | #94A | MCCULLOUGH, RYLAND | SM 14-15 | 3 | 1:05:36 | — | 0:00 | 21:52 |
| 2 | #99A | CASH, CARSON | SM 14-15 | 3 | 1:05:59 | +0:23 | 0:23 | 21:59 |
| 3 | #18A | EDMONDSON, TUCKER | SM 14-15 | 3 | 1:07:20 | +1:44 | 1:21 | 22:26 |
| 4 | #42B | LACY, JACK | SM 12-13 | 3 | 1:08:04 | +2:28 | 0:44 | 22:41 |
| 5 | #19A | CAWLEY, MASON | SM 14-15 | 3 | 1:08:07 | +2:31 | 0:03 | 22:42 |
| 6 | #47A | HARRISON, EVAN | SM 14-15 | 3 | 1:09:29 | +3:53 | 1:22 | 23:09 |
| 7 | #25B | HERTZLER, NOAH | SM 12-13 | 3 | 1:10:05 | +4:29 | 0:36 | 23:21 |
| 8 | #63B | WALTERS, DALTON | SM 12-13 | 3 | 1:11:16 | +5:40 | 1:11 | 23:45 |
| 9 | #36A | FULCHER, THOMAS | SM 14-15 | 3 | 1:12:46 | +7:10 | 1:30 | 24:15 |
| 10 | #30A | OLEARY, ASHTON | SM 14-15 | 3 | 1:13:04 | +7:28 | 0:18 | 24:21 |
| 11 | #44B | GEARHART, CADENCE | SM 12-13 | 3 | 1:13:05 | +7:29 | 0:01 | 24:21 |
| 12 | #29A | POFF, PEYTON | SM 14-15 | 3 | 1:13:23 | +7:47 | 0:18 | 24:27 |
| 13 | #42C | COLLINS, JAXON | MINI 12-13 | 3 | 1:13:48 | +8:12 | 0:25 | 24:36 |
| 14 | #52B | FOUTZ, KELLEN | SM 12-13 | 3 | 1:14:09 | +8:33 | 0:21 | 24:43 |
| 15 | #4C | KERN, QUENTIN | MINI 12-13 | 3 | 1:14:43 | +9:07 | 0:34 | 24:54 |
| 16 | #12D | BURKHOLDER, BRADLEY | MINI 9-11 | 3 | 1:15:25 | +9:49 | 0:42 | 25:08 |
| 17 | #51B | RICE, DANE | SM 12-13 | 3 | 1:15:49 | +10:13 | 0:24 | 25:16 |
| 18 | #85C | BUCHANAN, TUCKER | MINI 12-13 | 3 | 1:16:07 | +10:31 | 0:18 | 25:22 |
| 19 | #5C | MARKHAM, KASEN | MINI 12-13 | 3 | 1:16:17 | +10:41 | 0:10 | 25:25 |
| 20 | #25C | TORRES, TRISTIN | MINI 12-13 | 3 | 1:16:23 | +10:47 | 0:06 | 25:27 |
| 21 | #22B | BAKER, COHEN | SM 12-13 | 3 | 1:17:03 | +11:27 | 0:40 | 25:41 |
| 22 | #50C | JOHNSON, LUCAS | MINI 12-13 | 3 | 1:19:23 | +13:47 | 2:20 | 26:27 |
| 23 | #1K | DOMAN, HAYDEN | MINI 9-11K | 3 | 1:21:59 | +16:23 | 2:36 | 27:19 |
| 24 | #29C | NALLS, COLTON | MINI 12-13 | 3 | 1:23:55 | +18:19 | 1:56 | 27:58 |
| 25 | #40K | WINN, ADDISON | MINI 9-11K | 3 | 1:24:13 | +18:37 | 0:18 | 28:04 |
| 26 | #27A | SMITH, AYDEN | SM 14-15 | 3 | 1:25:04 | +19:28 | 0:51 | 28:21 |
| 27 | #11B | TYREE, JESSE | SM 12-13 | 3 | 1:25:54 | +20:18 | 0:50 | 28:38 |
| 28 | #2E | HARDMAN, SAVANNAH | SM WOMEN | 3 | 1:26:42 | +21:06 | 0:48 | 28:54 |
| 29 | #10E | PANCAKE, LILLIAN | SM WOMEN | 3 | 1:27:31 | +21:55 | 0:49 | 29:10 |
| 30 | #22A | WOOD, PARKER | SM 14-15 | 3 | 1:28:30 | +22:54 | 0:59 | 29:30 |
| 31 | #57K | WARREN, MASON | MINI 9-11K | 3 | 1:28:45 | +23:09 | 0:15 | 29:35 |
| 32 | #4K | MARKHAM, GUNNER | MINI 9-11K | 3 | 1:30:39 | +25:03 | 1:54 | 30:13 |
| 33 | #11A | SENTERS, ZEKE | SM 14-15 | 3 | 1:31:08 | +25:32 | 0:29 | 30:22 |
| 34 | #33C | LILLY, RYDER | MINI 12-13 | 3 | 1:33:15 | +27:39 | 2:07 | 31:05 |
| 35 | #26D | LILLY, WYATT | MINI 9-11 | 2 | 1:02:49 | 1 lap | 0:00 | 31:24 |
| 36 | #8E | PANCAKE, DELILAH | SM WOMEN | 2 | 1:03:19 | 1 lap | 0:30 | 31:39 |
| 37 | #11K | ADAMSON, CASSEL | MINI 9-11K | 2 | 1:03:31 | 1 lap | 0:12 | 31:45 |
| 38 | #8K | MUTER, MAX | MINI 9-11K | 2 | 1:03:35 | 1 lap | 0:04 | 31:47 |
| 39 | #16C | DODD, BENJAMIN | MINI 12-13 | 2 | 1:04:22 | 1 lap | 0:47 | 32:11 |
| 40 | #51K | RICE, HOLTON | MINI 9-11K | 2 | 1:04:45 | 1 lap | 0:23 | 32:22 |
| 41 | #69D | LILLY, COLE | MINI 9-11 | 2 | 1:05:43 | 1 lap | 0:58 | 32:51 |
| 42 | #55D | KUEBLER, CADEN | MINI 9-11 | 2 | 1:05:50 | 1 lap | 0:07 | 32:55 |
| 43 | #24E | WINGO, BELLA | SM WOMEN | 2 | 1:07:57 | 1 lap | 2:07 | 33:58 |
| 44 | #3D | HARTLEY, JACK | MINI 9-11 | 2 | 1:10:00 | 1 lap | 2:03 | 35:00 |
| 45 | #10K | LAMB, BRANTLEY | MINI 9-11K | 2 | 1:10:14 | 1 lap | 0:14 | 35:07 |
| 46 | #52A | REYNOLDS, LUCAS | SM 14-15 | 2 | 1:10:38 | 1 lap | 0:24 | 35:19 |
| 47 | #67E | BONANNO, ANGELINA | SM WOMEN | 2 | 1:11:44 | 1 lap | 1:06 | 35:52 |
| 48 | #48E | LANDRUM, KINLEY | SM WOMEN | 2 | 1:13:22 | 1 lap | 1:38 | 36:41 |
| 49 | #50K | WOLFORD, BRADLEY | MINI 9-11K | 2 | 1:13:37 | 1 lap | 0:15 | 36:48 |
| 50 | #18K | PAYNE, DYLAN | MINI 9-11K | 2 | 1:16:02 | 1 lap | 2:25 | 38:01 |
| 51 | #74K | LOVE, CONNER | MINI 9-11K | 2 | 1:17:43 | 1 lap | 1:41 | 38:51 |
| 52 | #95E | MCKEITHAN, SAMANTHA | SM WOMEN | 2 | 1:18:47 | 1 lap | 1:04 | 39:23 |
| 53 | #21D | PERRY, DYLAN | MINI 9-11 | 2 | 1:20:44 | 1 lap | 1:57 | 40:22 |
| 54 | #92E | MOBLEY, EMILY | SM WOMEN | 2 | 1:21:28 | 1 lap | 0:44 | 40:44 |
| 55 | #1C | DAVIS, KALEB | MINI 12-13 | 2 | 1:26:33 | 1 lap | 5:05 | 43:16 |
| 56 | #22K | BAKER, CAMDEN | MINI 9-11K | 2 | 1:45:05 | 1 lap | 18:32 | 52:32 |
| 57 | #88A | FORD, CHASE | SM 14-15 | 1 | 25:42 | 2 laps | 0:00 | 25:42 |
| 58 | #42A | SCHLICKENMEYER, SEAN | SM 14-15 | 1 | 29:32 | 2 laps | 3:50 | 29:32 |
| 59 | #21C | WIGGINS, MADDIX | MINI 12-13 | 1 | 30:11 | 2 laps | 0:39 | 30:11 |
| 60 | #21A | COUVILLION, BRAIDYN | SM 14-15 | 1 | 35:59 | 2 laps | 5:48 | 35:59 |
| 61 | #77K | LAMB, BRYSON | MINI 9-11K | 1 | 1:08:02 | 2 laps | 32:03 | 1:08:02 |
Ranked the way the series ranks: most laps first, then least time. Behind is the deficit to the winner and is only shown where the lap count matches, because elapsed time says nothing across different lap counts — a rider a lap down shows the laps instead. Int is the gap to the rider immediately ahead.